GW7197 Weather Reports


time (UTC)temp
F
wind
direction
speed
knots
gust
knots
rain 1hr
in
rain 24hr
in
rain mn
in
humidity
%
barometer
mb
20260507190951 78 255 0.0 0.0 0.00 0.00 0.00 75 1020.0
20260507190449 78 229 0.0 0.0 0.00 0.00 0.00 75 1020.0
20260507185948 79 249 0.0 0.0 0.00 0.00 0.00 75 1020.2
20260507185445 78 236 0.0 0.0 0.00 0.00 0.00 78 1020.2
20260507184941 77 293 0.0 0.0 0.00 0.00 0.00 78 1020.2
20260507184439 78 265 0.0 0.0 0.00 0.00 0.00 77 1020.1
20260507183937 78 229 0.0 0.0 0.00 0.00 0.00 79 1019.8
20260507183434 77 229 0.0 0.0 0.00 0.00 0.00 79 1020.0
20260507182931 77 257 0.0 0.0 0.00 0.00 0.00 79 1020.2
20260507182427 77 226 0.0 0.0 0.00 0.00 0.00 78 1020.1
20260507181923 77 227 0.0 0.0 0.00 0.00 0.00 79 1020.1
20260507181419 76 274 0.0 0.0 0.00 0.00 0.00 81 1019.8
20260507180916 75 229 0.0 0.0 0.00 0.00 0.00 81 1019.8
20260507180413 76 239 0.0 0.0 0.00 0.00 0.00 81 1019.8
20260507175908 76 232 0.0 0.0 0.00 0.00 0.00 83 1019.9
20260507175405 75 227 0.0 0.0 0.00 0.00 0.00 84 1019.7
20260507174903 75 235 0.0 0.0 0.00 0.00 0.00 83 1019.8
20260507174400 75 230 0.0 0.0 0.00 0.00 0.00 85 1019.7
20260507173858 74 225 0.0 0.0 0.00 0.00 0.00 87 1019.7
20260507173355 73 227 0.0 0.0 0.00 0.00 0.00 87 1019.6
20260507172851 73 219 0.0 0.0 0.00 0.00 0.00 87 1019.9
20260507172348 73 226 0.0 0.0 0.00 0.00 0.00 88 1019.5
20260507171844 72 224 0.0 0.0 0.00 0.00 0.00 90 1019.4
20260507171340 71 218 0.0 0.0 0.00 0.00 0.00 90 1019.4
20260507170838 70 221 0.0 0.0 0.00 0.00 0.00 91 1019.6
20260507170334 70 219 0.0 0.0 0.00 0.00 0.00 91 1019.3
20260507165830 69 212 0.0 0.0 0.00 0.00 0.00 91 1019.2
20260507165326 69 232 0.0 0.0 0.00 0.00 0.00 91 1019.1
20260507164822 69 214 0.0 0.0 0.00 0.00 0.00 92 1019.1
20260507164319 68 159 0.0 0.0 0.00 0.00 0.00 91 1019.0
20260507163817 67 252 0.0 0.0 0.00 0.00 0.00 92 1018.8
20260507163314 67 215 0.0 0.9 0.00 0.00 0.00 91 1018.7
20260507162810 67 218 0.0 0.0 0.00 0.00 0.00 92 1018.8
20260507162307 66 216 0.0 0.9 0.00 0.00 0.00 92 1018.7
20260507161803 66 212 0.9 0.9 0.00 0.00 0.00 92 1018.6
20260507161300 66 216 0.0 0.0 0.00 0.00 0.00 91 1018.6
20260507160756 66 217 0.0 0.9 0.00 0.00 0.00 91 1018.4
20260507160252 66 214 0.0 0.9 0.00 0.00 0.00 91 1018.3
20260507155748 66 213 0.0 0.9 0.00 0.00 0.00 91 1018.3
20260507155244 66 215 0.0 0.9 0.00 0.00 0.00 91 1018.3
20260507154741 66 216 0.0 0.9 0.00 0.00 0.00 91 1018.3
20260507154239 66 195 0.9 0.9 0.00 0.00 0.00 91 1018.2
20260507153735 67 219 0.0 0.9 0.00 0.00 0.00 91 1018.2
20260507153231 66 208 0.9 1.7 0.00 0.00 0.00 91 1018.2
20260507152728 67 216 0.9 1.7 0.00 0.00 0.00 91 1018.1
20260507152224 67 215 0.9 1.7 0.00 0.00 0.00 91 1018.0
20260507151720 67 219 0.0 0.9 0.00 0.00 0.00 91 1018.0
20260507151217 67 212 0.9 1.7 0.00 0.00 0.00 91 1017.9
20260507150714 67 211 0.0 0.9 0.00 0.00 0.00 91 1017.8
20260507150211 67 182 1.7 2.6 0.00 0.00 0.00 91 1017.9
20260507145706 67 211 0.9 0.9 0.00 0.00 0.00 90 1017.8
20260507145203 67 213 0.9 0.9 0.00 0.00 0.00 90 1017.6
20260507144700 68 222 0.0 0.0 0.00 0.00 0.00 90 1017.6
20260507144158 68 210 0.0 0.9 0.00 0.00 0.00 90 1017.6
20260507143655 68 211 0.0 0.9 0.00 0.00 0.00 90 1017.5
20260507143152 68 218 0.0 0.9 0.00 0.00 0.00 90 1017.6
20260507142647 68 220 0.0 0.0 0.00 0.00 0.00 90 1017.7
20260507142144 68 214 0.0 0.9 0.00 0.00 0.00 90 1017.5
20260507141641 68 211 0.9 0.9 0.00 0.00 0.00 90 1017.6
20260507141138 68 217 0.0 0.0 0.00 0.00 0.00 90 1017.6
20260507140634 68 215 0.0 0.0 0.00 0.00 0.00 89 1017.7
20260507140131 68 217 0.0 0.0 0.00 0.00 0.00 89 1017.6
20260507135628 68 217 0.0 0.0 0.00 0.00 0.00 89 1017.7
20260507135126 68 217 0.0 0.0 0.00 0.00 0.00 89 1017.6
20260507134622 68 217 0.0 0.0 0.00 0.00 0.00 89 1017.6
20260507134118 68 216 0.0 0.0 0.00 0.00 0.00 89 1017.8
20260507133614 68 216 0.0 0.0 0.00 0.00 0.00 89 1017.6
20260507133112 68 215 0.0 0.0 0.00 0.00 0.00 89 1017.6
20260507132608 69 215 0.0 0.0 0.00 0.00 0.00 89 1017.7
20260507132105 69 212 0.0 0.9 0.00 0.00 0.00 89 1017.6
20260507131602 69 223 0.0 0.0 0.00 0.00 0.00 89 1017.7
20260507131059 69 218 0.0 0.0 0.00 0.00 0.00 89 1017.8
20260507130556 69 221 0.0 0.0 0.00 0.00 0.00 88 1017.5
20260507130054 69 220 0.0 0.0 0.00 0.00 0.00 88 1017.9
20260507125553 69 218 0.0 0.0 0.00 0.00 0.00 88 1017.9
20260507125050 69 218 0.0 0.0 0.00 0.00 0.00 88 1018.1
20260507124546 69 219 0.0 0.0 0.00 0.00 0.00 88 1018.0
20260507124044 69 211 0.9 0.9 0.00 0.00 0.00 88 1018.0
20260507123542 69 216 0.0 0.9 0.00 0.00 0.00 88 1018.1
20260507123038 69 215 0.0 0.0 0.00 0.00 0.00 88 1018.1
20260507122533 69 131 0.0 0.9 0.00 0.00 0.00 88 1018.2
20260507122029 69 130 0.0 0.0 0.00 0.00 0.00 88 1018.3
20260507121525 70 130 0.0 0.9 0.00 0.00 0.00 87 1018.3
20260507121021 70 129 0.0 0.9 0.00 0.00 0.00 87 1018.3
20260507120518 70 129 0.0 0.9 0.00 0.00 0.00 87 1018.4
20260507120015 70 129 0.0 0.0 0.00 0.00 0.00 87 1018.4
20260507115511 70 129 0.0 0.0 0.00 0.00 0.00 87 1018.3
20260507115007 70 129 0.9 1.7 0.00 0.00 0.00 87 1018.4
20260507114503 70 128 0.0 0.9 0.00 0.00 0.00 86 1018.5
20260507114000 70 128 0.9 0.9 0.00 0.00 0.00 86 1018.6
20260507113457 70 128 0.0 0.0 0.00 0.00 0.00 86 1018.5
20260507112954 70 128 0.0 0.0 0.00 0.00 0.00 86 1018.7
20260507112452 70 128 0.0 0.0 0.00 0.00 0.00 86 1018.6
20260507111948 71 128 0.0 0.0 0.00 0.00 0.00 85 1018.7
20260507111446 71 128 0.0 0.9 0.00 0.00 0.00 85 1018.8
20260507110942 71 127 0.9 0.9 0.00 0.00 0.00 85 1018.7
20260507110438 71 127 0.0 0.9 0.00 0.00 0.00 85 1018.9
20260507105935 71 127 0.9 0.9 0.00 0.00 0.00 85 1018.7
20260507105432 71 127 0.9 1.7 0.00 0.00 0.00 85 1019.0
20260507104929 71 127 0.9 2.6 0.00 0.00 0.00 85 1019.0
20260507104426 71 126 1.7 1.7 0.00 0.00 0.00 85 1019.0
20260507103926 71 125 0.0 0.9 0.00 0.00 0.00 85 1019.0
20260507103424 71 125 1.7 1.7 0.00 0.00 0.00 85 1019.0
20260507102920 71 125 1.7 2.6 0.00 0.00 0.00 85 1019.1
20260507102417 71 125 1.7 2.6 0.00 0.00 0.00 85 1019.1
20260507101913 71 124 0.9 1.7 0.00 0.00 0.00 85 1019.1
20260507101408 71 124 0.9 0.9 0.00 0.00 0.00 85 1019.1
20260507100905 71 123 0.0 0.0 0.00 0.00 0.00 84 1019.2
20260507100403 71 123 0.0 0.9 0.00 0.00 0.00 84 1019.3
20260507095901 71 123 0.9 0.9 0.00 0.00 0.00 84 1019.5
20260507095357 71 123 0.0 0.9 0.00 0.00 0.00 84 1019.3
20260507094855 71 123 0.0 0.0 0.00 0.00 0.00 84 1019.4
20260507094351 71 123 1.7 2.6 0.00 0.00 0.00 84 1019.5
20260507093848 71 122 0.0 0.9 0.00 0.00 0.00 84 1019.5
20260507093346 71 122 1.7 1.7 0.00 0.00 0.00 84 1019.7
20260507092844 71 122 1.7 2.6 0.00 0.00 0.00 84 1019.5
20260507092340 71 121 0.0 0.9 0.00 0.00 0.00 84 1019.5
20260507091836 71 121 0.0 0.9 0.00 0.00 0.00 84 1019.5
20260507091333 71 121 1.7 2.6 0.00 0.00 0.00 84 1019.6
20260507090829 71 121 0.0 0.0 0.00 0.00 0.00 84 1019.8
20260507090325 71 120 0.9 1.7 0.00 0.00 0.00 84 1019.7
20260507085822 71 89 0.0 0.0 0.00 0.00 0.00 84 1019.8
20260507085319 71 89 0.0 2.6 0.00 0.00 0.00 84 1019.7
20260507084817 71 89 1.7 1.7 0.00 0.00 0.00 84 1019.6
20260507084313 71 89 0.0 0.0 0.00 0.00 0.00 83 1019.7
20260507083810 71 89 0.9 1.7 0.00 0.00 0.00 83 1019.6
20260507083307 72 89 1.7 1.7 0.00 0.00 0.00 83 1019.7
20260507082803 72 89 0.9 2.6 0.00 0.00 0.00 83 1019.5
20260507082259 72 89 0.0 0.9 0.00 0.00 0.00 83 1019.6
20260507081756 72 89 1.7 2.6 0.00 0.00 0.00 83 1019.9
20260507081252 72 89 0.9 2.6 0.00 0.00 0.00 83 1019.6
20260507080748 72 89 0.9 1.7 0.00 0.00 0.00 83 1019.8
20260507080245 72 89 0.9 0.9 0.00 0.00 0.00 83 1019.5
20260507075740 72 89 0.9 2.6 0.00 0.00 0.00 83 1019.5
20260507075237 72 88 0.9 1.7 0.00 0.00 0.00 82 1019.6
20260507074733 72 88 0.9 1.7 0.00 0.00 0.00 82 1019.5
20260507074231 72 88 0.9 1.7 0.00 0.00 0.00 82 1019.5
20260507073727 73 88 0.9 0.9 0.00 0.00 0.00 82 1019.5
20260507073224 73 88 0.0 0.9 0.00 0.00 0.00 81 1019.6
20260507072722 73 88 0.9 0.9 0.00 0.00 0.00 81 1019.5
20260507072219 73 88 0.0 0.0 0.00 0.00 0.00 81 1019.5
20260507071717 73 87 0.9 0.9 0.00 0.00 0.00 81 1019.2
20260507071213 73 87 0.9 1.7 0.00 0.00 0.00 80 1019.4
20260507070710 73 87 0.9 0.9 0.00 0.00 0.00 80 1019.3
20260507070207 73 87 0.9 1.7 0.00 0.00 0.00 80 1019.2
20260507065703 74 87 0.0 1.7 0.00 0.00 0.00 80 1019.2
20260507065200 74 87 0.9 1.7 0.00 0.00 0.00 80 1019.0
20260507064657 74 87 0.9 0.9 0.00 0.00 0.00 79 1019.0
20260507064156 74 87 0.9 0.9 0.00 0.00 0.00 79 1019.1
20260507063653 74 87 0.9 1.7 0.00 0.00 0.00 79 1018.9
20260507063150 74 87 0.0 0.9 0.00 0.00 0.00 79 1018.9
20260507062647 74 87 0.9 1.7 0.00 0.00 0.00 79 1019.0
20260507062144 74 87 1.7 1.7 0.00 0.00 0.00 79 1018.7
20260507061642 74 75 1.7 1.7 0.00 0.00 0.00 79 1018.7
20260507061140 74 74 0.9 2.6 0.00 0.00 0.00 78 1018.7
20260507060638 74 61 0.9 1.7 0.00 0.00 0.00 78 1018.4
20260507060134 74 61 0.0 0.9 0.00 0.00 0.00 78 1018.4
20260507055629 74 61 0.9 1.7 0.00 0.00 0.00 78 1018.3
20260507055125 74 55 0.9 1.7 0.00 0.00 0.00 78 1018.2
20260507054621 74 56 1.7 1.7 0.00 0.00 0.00 78 1018.2
20260507054119 75 41 1.7 3.5 0.00 0.00 0.00 78 1018.3
20260507053617 75 49 1.7 2.6 0.00 0.00 0.00 78 1018.2
20260507053115 75 346 0.9 3.5 0.00 0.00 0.00 78 1017.9
20260507052613 75 5 1.7 2.6 0.00 0.00 0.00 78 1018.1
20260507052109 75 354 0.9 2.6 0.00 0.00 0.00 78 1017.9
20260507051607 75 349 0.9 3.5 0.00 0.00 0.00 78 1018.0
20260507051103 75 349 5.2 6.1 0.00 0.00 0.00 77 1018.0
20260507050600 75 335 1.7 7.0 0.00 0.00 0.00 78 1017.8
20260507050056 75 347 2.6 3.5 0.00 0.00 0.00 78 1017.8
20260507045553 75 341 0.9 6.1 0.00 0.00 0.00 77 1017.7
20260507045051 76 16 3.5 5.2 0.00 0.00 0.00 77 1017.7
20260507044547 76 339 2.6 5.2 0.00 0.00 0.00 77 1017.7
20260507044044 76 346 6.1 7.8 0.00 0.00 0.00 77 1017.6
20260507043539 76 36 2.6 6.1 0.00 0.00 0.00 77 1017.6
20260507043037 76 331 2.6 8.7 0.00 0.00 0.00 78 1017.6
20260507042533 76 337 4.3 7.8 0.00 0.00 0.00 77 1017.6
20260507042029 76 41 1.7 5.2 0.00 0.00 0.00 77 1017.3
20260507041526 76 356 4.3 6.1 0.00 0.00 0.00 77 1017.4
20260507041023 76 3 5.2 7.8 0.00 0.00 0.00 78 1017.2
20260507040519 76 356 4.3 7.8 0.00 0.00 0.00 77 1017.2
20260507040015 76 348 8.7 9.6 0.00 0.00 0.00 77 1017.2
20260507035511 76 355 7.8 11.3 0.00 0.00 0.00 77 1017.2
20260507035008 76 34 7.8 9.6 0.00 0.00 0.00 77 1017.0
20260507034505 76 3 9.6 11.3 0.00 0.00 0.00 77 1017.0
20260507034003 76 5 7.0 7.8 0.00 0.00 0.00 78 1017.1
20260507033500 76 325 7.0 9.6 0.00 0.00 0.00 78 1016.9
20260507032957 76 351 7.8 12.2 0.00 0.00 0.00 77 1016.8
20260507032454 76 353 9.6 12.2 0.00 0.00 0.00 77 1016.9
20260507031950 76 358 9.6 11.3 0.00 0.00 0.00 78 1016.8
20260507031447 76 1 9.6 12.2 0.00 0.00 0.00 77 1016.8
20260507030944 76 340 7.8 8.7 0.00 0.00 0.00 77 1016.8
20260507030441 76 346 7.8 11.3 0.00 0.00 0.00 77 1016.6
20260507025938 76 339 7.0 11.3 0.00 0.00 0.00 78 1016.7
20260507025435 76 5 8.7 11.3 0.00 0.00 0.00 78 1016.5
20260507024933 76 340 7.8 9.6 0.00 0.00 0.00 78 1016.6
20260507024430 76 340 7.8 12.2 0.00 0.00 0.00 79 1016.4
20260507023926 76 1 7.8 12.2 0.00 0.00 0.00 79 1016.6
20260507023423 76 3 9.6 11.3 0.00 0.00 0.00 78 1016.6
20260507022920 76 354 9.6 12.2 0.00 0.00 0.00 79 1016.5
20260507022417 76 9 11.3 13.0 0.00 0.00 0.00 78 1016.6
20260507021913 76 347 9.6 11.3 0.00 0.00 0.00 78 1016.4
20260507021408 76 354 9.6 13.0 0.00 0.00 0.00 78 1016.4
20260507020906 76 9 9.6 12.2 0.00 0.00 0.00 78 1016.6
20260507020402 76 5 11.3 13.0 0.00 0.00 0.00 78 1016.7
20260507015859 76 19 8.7 12.2 0.00 0.00 0.00 78 1016.8
20260507015358 76 350 9.6 13.0 0.00 0.00 0.00 78 1016.8
20260507014854 76 355 9.6 12.2 0.00 0.00 0.00 78 1016.8
20260507014350 76 338 10.4 12.2 0.00 0.00 0.00 78 1016.7
20260507013847 77 348 9.6 12.2 0.00 0.00 0.00 78 1016.6
20260507013344 76 344 9.6 11.3 0.00 0.00 0.00 78 1016.6
20260507012842 77 5 10.4 13.0 0.00 0.00 0.00 78 1016.7
20260507012337 76 334 9.6 12.2 0.00 0.00 0.00 78 1016.8
20260507011835 76 352 11.3 13.0 0.00 0.00 0.00 78 1016.7
20260507011332 76 347 8.7 12.2 0.00 0.00 0.00 79 1016.7
20260507010831 76 340 10.4 11.3 0.00 0.00 0.00 77 1016.7
20260507010327 76 350 8.7 11.3 0.00 0.00 0.00 77 1016.9
20260507005825 76 355 9.6 13.0 0.00 0.00 0.00 78 1016.9
20260507005321 76 340 9.6 11.3 0.00 0.00 0.00 78 1017.0
20260507004818 76 357 10.4 11.3 0.00 0.00 0.00 79 1016.9
20260507004316 76 343 11.3 12.2 0.00 0.00 0.00 79 1017.0
20260507003813 77 334 9.6 11.3 0.00 0.00 0.00 79 1017.0
20260507003308 76 332 9.6 12.2 0.00 0.00 0.00 79 1017.2
20260507002803 76 345 10.4 13.0 0.00 0.00 0.00 79 1017.2
20260507002259 77 339 9.6 11.3 0.00 0.00 0.00 79 1017.2
20260507001757 77 354 12.2 13.9 0.00 0.00 0.00 79 1017.2
20260507001254 77 347 9.6 11.3 0.00 0.00 0.00 78 1017.4
20260507000750 77 8 10.4 13.0 0.00 0.00 0.00 78 1017.4
20260507000246 77 350 12.2 13.0 0.00 0.00 0.00 78 1017.3
20260506235743 77 355 9.6 12.2 0.00 0.00 0.00 79 1017.5
20260506235238 77 338 10.4 12.2 0.00 0.00 0.00 78 1017.5
20260506234736 77 346 11.3 13.0 0.00 0.00 0.00 79 1017.3
20260506234233 77 7 10.4 13.0 0.00 0.00 0.00 78 1017.5
20260506233730 77 351 9.6 12.2 0.00 0.00 0.00 79 1017.5
20260506233226 77 341 8.7 12.2 0.00 0.00 0.00 79 1017.5
20260506232723 78 338 9.6 13.0 0.00 0.00 0.00 80 1017.4
20260506232218 77 351 11.3 13.0 0.00 0.00 0.00 79 1017.7
20260506231716 77 355 11.3 13.9 0.00 0.00 0.00 79 1017.6
20260506231214 77 346 9.6 12.2 0.00 0.00 0.00 79 1017.5
20260506230710 77 354 10.4 13.0 0.00 0.00 0.00 79 1017.4
20260506230207 77 355 11.3 13.0 0.00 0.00 0.00 78 1017.5
20260506225704 77 350 11.3 13.9 0.00 0.00 0.00 78 1017.6
20260506225201 77 343 11.3 13.0 0.00 0.00 0.00 78 1017.5
20260506224657 77 16 11.3 13.0 0.00 0.00 0.00 79 1017.6
20260506224154 77 351 10.4 12.2 0.00 0.00 0.00 81 1017.7
20260506223650 77 349 10.4 13.0 0.00 0.00 0.00 80 1017.7
20260506223146 77 353 11.3 13.0 0.00 0.00 0.00 80 1017.9
20260506222643 77 355 10.4 12.2 0.00 0.00 0.00 80 1017.6
20260506222139 77 9 12.2 13.0 0.00 0.00 0.00 80 1017.8
20260506221637 78 343 10.4 13.9 0.00 0.00 0.00 80 1017.8
20260506221135 78 350 11.3 13.0 0.00 0.00 0.00 80 1017.8
20260506220631 78 340 11.3 13.9 0.00 0.00 0.00 80 1017.8
20260506220127 78 1 11.3 13.0 0.00 0.00 0.00 80 1017.9
20260506215624 78 341 9.6 13.9 0.00 0.00 0.00 81 1017.9
20260506215119 77 342 11.3 13.0 0.00 0.00 0.00 81 1017.8
20260506214616 78 8 11.3 13.0 0.00 0.00 0.00 81 1018.0
20260506214114 78 345 10.4 12.2 0.00 0.00 0.00 80 1018.1
20260506213612 78 347 9.6 11.3 0.00 0.00 0.00 80 1018.1
20260506213108 78 357 8.7 11.3 0.00 0.00 0.00 80 1018.1
20260506212606 77 340 8.7 9.6 0.00 0.00 0.00 79 1018.1
20260506212100 77 320 7.8 9.6 0.00 0.00 0.00 80 1018.2
20260506211556 77 352 9.6 11.3 0.00 0.00 0.00 80 1018.2
20260506211053 78 355 8.7 11.3 0.00 0.00 0.00 79 1018.3
20260506210550 78 313 8.7 8.7 0.00 0.00 0.00 80 1018.2
20260506210047 78 345 9.6 9.6 0.00 0.00 0.00 80 1018.4
20260506205543 77 350 9.6 11.3 0.00 0.00 0.00 81 1018.2
20260506205038 77 352 9.6 11.3 0.00 0.00 0.00 80 1018.2
20260506204537 77 347 9.6 11.3 0.00 0.00 0.00 81 1018.1
20260506204034 77 346 8.7 11.3 0.00 0.00 0.00 81 1018.0
20260506203532 77 348 7.8 11.3 0.00 0.00 0.00 81 1018.4
20260506203028 77 332 9.6 11.3 0.00 0.00 0.00 81 1018.3
20260506202526 77 1 10.4 12.2 0.00 0.00 0.00 82 1018.2
20260506202021 77 354 9.6 9.6 0.00 0.00 0.00 82 1018.1
20260506201520 77 348 8.7 11.3 0.00 0.00 0.00 82 1018.2
20260506201016 77 342 10.4 11.3 0.00 0.00 0.00 81 1018.4
20260506200512 77 357 9.6 11.3 0.00 0.00 0.00 81 1018.3
20260506200009 77 25 5.2 6.1 0.00 0.00 0.00 81 1018.3
20260506195506 77 348 7.8 7.8 0.00 0.00 0.00 80 1018.1
20260506195002 77 324 7.0 8.7 0.00 0.00 0.00 80 1018.3
20260506194500 77 335 7.0 7.8 0.00 0.00 0.00 81 1018.2
20260506193956 77 343 6.1 7.8 0.00 0.00 0.00 81 1018.2
20260506193454 77 322 6.1 7.8 0.00 0.00 0.00 81 1018.1
20260506192950 77 346 5.2 7.0 0.00 0.00 0.00 82 1018.0
20260506192447 77 331 9.6 9.6 0.00 0.00 0.00 83 1018.1
20260506191943 76 320 7.0 7.8 0.00 0.00 0.00 83 1018.0
20260506191440 76 330 6.1 7.0 0.00 0.00 0.00 83 1018.0